{"data":{"norad_id":63273,"epoch":"2026-05-25T01:12:33.969888Z","epoch_age_seconds":63864,"freshness":"FRESH","line1":"1 63273U 25053J   26145.05039317  .00149685  00000+0  11501-2 0  9994","line2":"2 63273  43.0002  11.5408 0001424 248.7947 111.2769 15.70820718 69688","mean_motion":15.70820718,"eccentricity":0.0001424,"inclination_deg":43.0002,"raan_deg":11.5408,"arg_perigee_deg":248.7947,"mean_anomaly_deg":111.2769,"bstar":0.0011501,"rev_number":6968,"period_min":91.671823747871,"perigee_km":355.59115424347,"apogee_km":357.50919315054,"semimajor_km":6734.687173697,"source":"CELESTRAK","updated_at":"2026-05-25T13:38:19.925724Z"}}